Time,TemperatureF,DewpointF,PressureIn,WindDirection,WindDirectionDegrees,WindSpeedMPH,WindSpeedGustMPH,Humidity,HourlyPrecipIn,Conditions,Clouds,dailyrainin,SoftwareType,DateUTC
2013-02-25 00:01:00,3.0,-1.0,30.02,North,-999,-999.0,-999.0,82,-99.99,,,-99.99,,2013-02-25 07:01:00,
2013-02-25 00:11:00,3.0,0.0,30.03,North,-999,-999.0,-999.0,86,-99.99,,,-99.99,,2013-02-25 07:11:00,
2013-02-25 00:21:00,3.0,0.0,30.03,North,-999,-999.0,-999.0,86,-99.99,,,-99.99,,2013-02-25 07:21:00,
2013-02-25 00:32:00,3.0,0.0,30.03,North,-999,-999.0,-999.0,86,-99.99,,,-99.99,,2013-02-25 07:32:00,
2013-02-25 00:41:00,4.0,0.0,30.02,North,-999,-999.0,-999.0,85,-99.99,,,-99.99,,2013-02-25 07:41:00,
2013-02-25 00:51:00,4.0,0.0,30.02,North,-999,-999.0,-999.0,85,-99.99,,,-99.99,,2013-02-25 07:51:00,
2013-02-25 01:01:00,4.0,0.0,30.02,North,-999,-999.0,-999.0,85,-99.99,,,-99.99,,2013-02-25 08:01:00,
2013-02-25 01:11:00,-1.0,-5.0,30.02,North,-999,-999.0,-999.0,83,-99.99,,,-99.99,,2013-02-25 08:11:00,
2013-02-25 01:21:00,-1.0,-5.0,30.02,North,-999,-999.0,-999.0,83,-99.99,,,-99.99,,2013-02-25 08:21:00,
2013-02-25 01:32:00,-1.0,-5.0,30.02,North,-999,-999.0,-999.0,83,-99.99,,,-99.99,,2013-02-25 08:32:00,
2013-02-25 01:41:00,3.0,-1.0,30.03,North,-999,-999.0,-999.0,84,-99.99,,,-99.99,,2013-02-25 08:41:00,
2013-02-25 01:52:00,3.0,-1.0,30.03,North,-999,-999.0,-999.0,84,-99.99,,,-99.99,,2013-02-25 08:52:00,
2013-02-25 02:01:00,3.0,-1.0,30.03,North,-999,-999.0,-999.0,84,-99.99,,,-99.99,,2013-02-25 09:01:00,
2013-02-25 02:12:00,3.0,-1.0,30.03,North,-999,-999.0,-999.0,84,-99.99,,,-99.99,,2013-02-25 09:12:00,
2013-02-25 02:21:00,-1.0,-6.0,30.02,North,-999,-999.0,-999.0,80,-99.99,,,-99.99,,2013-02-25 09:21:00,
2013-02-25 02:31:00,-1.0,-6.0,30.02,North,-999,-999.0,-999.0,80,-99.99,,,-99.99,,2013-02-25 09:31:00,
2013-02-25 02:42:00,-3.0,-7.0,30.02,North,-999,-999.0,-999.0,80,-99.99,,,-99.99,,2013-02-25 09:42:00,
2013-02-25 02:52:00,-3.0,-7.0,30.02,North,-999,-999.0,-999.0,80,-99.99,,,-99.99,,2013-02-25 09:52:00,
2013-02-25 03:01:00,-3.0,-7.0,30.02,North,-999,-999.0,-999.0,80,-99.99,,,-99.99,,2013-02-25 10:01:00,
2013-02-25 03:11:00,-2.0,-7.0,30.01,North,-999,-999.0,-999.0,82,-99.99,,,-99.99,,2013-02-25 10:11:00,
2013-02-25 03:21:00,-2.0,-7.0,30.01,North,-999,-999.0,-999.0,82,-99.99,,,-99.99,,2013-02-25 10:21:00,
2013-02-25 03:32:00,-2.0,-7.0,30.01,North,-999,-999.0,-999.0,82,-99.99,,,-99.99,,2013-02-25 10:32:00,
2013-02-25 03:42:00,0.0,-4.0,30.00,North,-999,-999.0,-999.0,82,-99.99,,,-99.99,,2013-02-25 10:42:00,
2013-02-25 03:52:00,0.0,-4.0,30.00,North,-999,-999.0,-999.0,82,-99.99,,,-99.99,,2013-02-25 10:52:00,
2013-02-25 04:01:00,0.0,-4.0,30.00,North,-999,-999.0,-999.0,82,-99.99,,,-99.99,,2013-02-25 11:01:00,
2013-02-25 04:11:00,0.0,-4.0,30.00,North,-999,-999.0,-999.0,82,-99.99,,,-99.99,,2013-02-25 11:11:00,
2013-02-25 04:21:00,-1.0,-5.0,29.99,North,-999,-999.0,-999.0,81,-99.99,,,-99.99,,2013-02-25 11:21:00,
2013-02-25 04:32:00,-1.0,-5.0,29.99,North,-999,-999.0,-999.0,81,-99.99,,,-99.99,,2013-02-25 11:32:00,
2013-02-25 04:42:00,-2.0,-6.0,30.00,North,-999,-999.0,-999.0,80,-99.99,,,-99.99,,2013-02-25 11:42:00,
2013-02-25 04:52:00,-2.0,-6.0,30.00,North,-999,-999.0,-999.0,80,-99.99,,,-99.99,,2013-02-25 11:52:00,
2013-02-25 05:02:00,-2.0,-6.0,30.00,North,-999,-999.0,-999.0,80,-99.99,,,-99.99,,2013-02-25 12:02:00,
2013-02-25 05:11:00,-1.0,-6.0,30.00,North,-999,-999.0,-999.0,80,-99.99,,,-99.99,,2013-02-25 12:11:00,
2013-02-25 05:21:00,-1.0,-6.0,30.00,North,-999,-999.0,-999.0,80,-99.99,,,-99.99,,2013-02-25 12:21:00,
2013-02-25 05:32:00,-1.0,-6.0,30.00,North,-999,-999.0,-999.0,80,-99.99,,,-99.99,,2013-02-25 12:32:00,
2013-02-25 05:42:00,-2.0,-6.0,30.00,North,-999,-999.0,-999.0,82,-99.99,,,-99.99,,2013-02-25 12:42:00,
2013-02-25 05:53:00,-2.0,-6.0,30.00,North,-999,-999.0,-999.0,82,-99.99,,,-99.99,,2013-02-25 12:53:00,
2013-02-25 06:02:00,-2.0,-6.0,30.00,North,-999,-999.0,-999.0,82,-99.99,,,-99.99,,2013-02-25 13:02:00,
2013-02-25 06:12:00,-2.0,-7.0,30.00,North,-999,-999.0,-999.0,80,-99.99,,,-99.99,,2013-02-25 13:12:00,
2013-02-25 06:22:00,-2.0,-7.0,30.00,North,-999,-999.0,-999.0,80,-99.99,,,-99.99,,2013-02-25 13:22:00,
2013-02-25 06:32:00,-2.0,-7.0,30.00,North,-999,-999.0,-999.0,80,-99.99,,,-99.99,,2013-02-25 13:32:00,
2013-02-25 06:42:00,-3.0,-7.0,30.00,North,-999,-999.0,-999.0,82,-99.99,,,-99.99,,2013-02-25 13:42:00,
2013-02-25 06:52:00,-3.0,-7.0,30.00,North,-999,-999.0,-999.0,82,-99.99,,,-99.99,,2013-02-25 13:52:00,
2013-02-25 07:03:00,-3.0,-7.0,30.00,North,-999,-999.0,-999.0,82,-99.99,,,-99.99,,2013-02-25 14:03:00,
2013-02-25 07:17:00,-2.0,-6.0,29.99,North,-999,-999.0,-999.0,83,-99.99,,,-99.99,,2013-02-25 14:17:00,
2013-02-25 07:32:00,-2.0,-6.0,29.99,North,-999,-999.0,-999.0,83,-99.99,,,-99.99,,2013-02-25 14:32:00,
2013-02-25 07:42:00,-2.0,-6.0,29.99,North,-999,-999.0,-999.0,83,-99.99,,,-99.99,,2013-02-25 14:42:00,
2013-02-25 07:52:00,-1.0,-7.0,29.99,North,-999,-999.0,-999.0,78,-99.99,,,-99.99,,2013-02-25 14:52:00,
2013-02-25 08:02:00,-1.0,-7.0,29.99,North,-999,-999.0,-999.0,78,-99.99,,,-99.99,,2013-02-25 15:02:00,
2013-02-25 08:11:00,-5.0,-10.0,29.99,North,-999,-999.0,-999.0,77,-99.99,,,-99.99,,2013-02-25 15:11:00,
2013-02-25 08:21:00,-5.0,-10.0,29.99,North,-999,-999.0,-999.0,77,-99.99,,,-99.99,,2013-02-25 15:21:00,
2013-02-25 08:32:00,-5.0,-10.0,29.99,North,-999,-999.0,-999.0,77,-99.99,,,-99.99,,2013-02-25 15:32:00,
2013-02-25 08:41:00,-3.0,-8.0,29.99,North,-999,-999.0,-999.0,78,-99.99,,,-99.99,,2013-02-25 15:41:00,
2013-02-25 08:51:00,-3.0,-8.0,29.99,North,-999,-999.0,-999.0,78,-99.99,,,-99.99,,2013-02-25 15:51:00,
2013-02-25 09:02:00,-3.0,-8.0,29.99,North,-999,-999.0,-999.0,78,-99.99,,,-99.99,,2013-02-25 16:02:00,
2013-02-25 09:11:00,3.0,-2.0,29.98,North,-999,-999.0,-999.0,80,-99.99,,,-99.99,,2013-02-25 16:11:00,
2013-02-25 09:21:00,3.0,-2.0,29.98,North,-999,-999.0,-999.0,80,-99.99,,,-99.99,,2013-02-25 16:21:00,
2013-02-25 09:32:00,3.0,-2.0,29.98,North,-999,-999.0,-999.0,80,-99.99,,,-99.99,,2013-02-25 16:32:00,
2013-02-25 09:42:00,3.0,-2.0,29.98,North,-999,-999.0,-999.0,80,-99.99,,,-99.99,,2013-02-25 16:42:00,
2013-02-25 09:51:00,8.0,4.0,29.98,North,-999,-999.0,-999.0,83,-99.99,,,-99.99,,2013-02-25 16:51:00,
2013-02-25 10:01:00,8.0,4.0,29.98,North,-999,-999.0,-999.0,83,-99.99,,,-99.99,,2013-02-25 17:01:00,
2013-02-25 10:11:00,14.0,11.0,29.98,North,-999,-999.0,-999.0,88,-99.99,,,-99.99,,2013-02-25 17:11:00,
2013-02-25 10:21:00,14.0,11.0,29.98,North,-999,-999.0,-999.0,88,-99.99,,,-99.99,,2013-02-25 17:21:00,
2013-02-25 10:41:00,12.0,7.0,29.98,North,-999,-999.0,-999.0,80,-99.99,,,-99.99,,2013-02-25 17:41:00,
2013-02-25 10:52:00,12.0,7.0,29.98,North,-999,-999.0,-999.0,80,-99.99,,,-99.99,,2013-02-25 17:52:00,
2013-02-25 11:01:00,12.0,7.0,29.98,North,-999,-999.0,-999.0,80,-99.99,,,-99.99,,2013-02-25 18:01:00,
2013-02-25 11:12:00,12.0,7.0,29.98,North,-999,-999.0,-999.0,80,-99.99,,,-99.99,,2013-02-25 18:12:00,
2013-02-25 11:21:00,14.0,8.0,29.96,North,-999,-999.0,-999.0,76,-99.99,,,-99.99,,2013-02-25 18:21:00,
2013-02-25 11:32:00,14.0,8.0,29.96,North,-999,-999.0,-999.0,76,-99.99,,,-99.99,,2013-02-25 18:32:00,
2013-02-25 11:42:00,14.0,8.0,29.96,North,-999,-999.0,-999.0,76,-99.99,,,-99.99,,2013-02-25 18:42:00,
2013-02-25 11:51:00,16.0,9.0,29.96,North,-999,-999.0,-999.0,74,-99.99,,,-99.99,,2013-02-25 18:51:00,
2013-02-25 12:01:00,16.0,9.0,29.96,North,-999,-999.0,-999.0,74,-99.99,,,-99.99,,2013-02-25 19:01:00,
2013-02-25 12:11:00,18.0,9.0,29.94,North,-999,-999.0,-999.0,67,-99.99,,,-99.99,,2013-02-25 19:11:00,
2013-02-25 12:21:00,18.0,9.0,29.94,North,-999,-999.0,-999.0,67,-99.99,,,-99.99,,2013-02-25 19:21:00,
2013-02-25 12:32:00,18.0,9.0,29.94,North,-999,-999.0,-999.0,67,-99.99,,,-99.99,,2013-02-25 19:32:00,
2013-02-25 12:42:00,18.0,9.0,29.94,North,-999,-999.0,-999.0,67,-99.99,,,-99.99,,2013-02-25 19:42:00,
2013-02-25 12:52:00,17.0,7.0,29.92,North,-999,-999.0,-999.0,65,-99.99,,,-99.99,,2013-02-25 19:52:00,
2013-02-25 13:01:00,17.0,7.0,29.92,North,-999,-999.0,-999.0,65,-99.99,,,-99.99,,2013-02-25 20:01:00,
2013-02-25 13:11:00,18.0,10.0,29.91,North,-999,-999.0,-999.0,69,-99.99,,,-99.99,,2013-02-25 20:11:00,
2013-02-25 13:21:00,18.0,10.0,29.91,North,-999,-999.0,-999.0,69,-99.99,,,-99.99,,2013-02-25 20:21:00,
2013-02-25 13:32:00,18.0,10.0,29.91,North,-999,-999.0,-999.0,69,-99.99,,,-99.99,,2013-02-25 20:32:00,
2013-02-25 13:42:00,19.0,9.0,29.90,North,-999,-999.0,-999.0,66,-99.99,,,-99.99,,2013-02-25 20:42:00,
2013-02-25 13:52:00,19.0,9.0,29.90,North,-999,-999.0,-999.0,66,-99.99,,,-99.99,,2013-02-25 20:52:00,
2013-02-25 14:01:00,19.0,9.0,29.90,North,-999,-999.0,-999.0,66,-99.99,,,-99.99,,2013-02-25 21:01:00,
2013-02-25 14:11:00,19.0,9.0,29.90,North,-999,-999.0,-999.0,66,-99.99,,,-99.99,,2013-02-25 21:11:00,
2013-02-25 14:21:00,20.0,10.0,29.89,North,-999,-999.0,-999.0,65,-99.99,,,-99.99,,2013-02-25 21:21:00,
2013-02-25 14:31:00,20.0,10.0,29.89,North,-999,-999.0,-999.0,65,-99.99,,,-99.99,,2013-02-25 21:31:00,
2013-02-25 14:42:00,21.0,10.0,29.89,North,-999,-999.0,-999.0,63,-99.99,,,-99.99,,2013-02-25 21:42:00,
2013-02-25 14:51:00,21.0,10.0,29.89,North,-999,-999.0,-999.0,63,-99.99,,,-99.99,,2013-02-25 21:51:00,
2013-02-25 15:01:00,21.0,10.0,29.89,North,-999,-999.0,-999.0,63,-99.99,,,-99.99,,2013-02-25 22:01:00,
2013-02-25 15:11:00,20.0,9.0,29.88,North,-999,-999.0,-999.0,60,-99.99,,,-99.99,,2013-02-25 22:11:00,
2013-02-25 15:21:00,20.0,9.0,29.88,North,-999,-999.0,-999.0,60,-99.99,,,-99.99,,2013-02-25 22:21:00,
2013-02-25 15:32:00,20.0,9.0,29.88,North,-999,-999.0,-999.0,60,-99.99,,,-99.99,,2013-02-25 22:32:00,
2013-02-25 15:42:00,20.0,9.0,29.88,North,-999,-999.0,-999.0,61,-99.99,,,-99.99,,2013-02-25 22:42:00,
2013-02-25 15:51:00,20.0,9.0,29.88,North,-999,-999.0,-999.0,61,-99.99,,,-99.99,,2013-02-25 22:51:00,
2013-02-25 16:01:00,20.0,9.0,29.88,North,-999,-999.0,-999.0,61,-99.99,,,-99.99,,2013-02-25 23:01:00,
2013-02-25 16:11:00,20.0,10.0,29.87,North,-999,-999.0,-999.0,64,-99.99,,,-99.99,,2013-02-25 23:11:00,
2013-02-25 16:22:00,20.0,10.0,29.87,North,-999,-999.0,-999.0,64,-99.99,,,-99.99,,2013-02-25 23:22:00,
2013-02-25 16:31:00,20.0,10.0,29.87,North,-999,-999.0,-999.0,64,-99.99,,,-99.99,,2013-02-25 23:31:00,
2013-02-25 16:42:00,19.0,10.0,29.87,North,-999,-999.0,-999.0,65,-99.99,,,-99.99,,2013-02-25 23:42:00,
2013-02-25 16:52:00,19.0,10.0,29.87,North,-999,-999.0,-999.0,65,-99.99,,,-99.99,,2013-02-25 23:52:00,
2013-02-25 17:01:00,19.0,10.0,29.87,North,-999,-999.0,-999.0,65,-99.99,,,-99.99,,2013-02-26 00:01:00,
2013-02-25 17:12:00,19.0,10.0,29.87,North,-999,-999.0,-999.0,65,-99.99,,,-99.99,,2013-02-26 00:12:00,
2013-02-25 17:21:00,19.0,10.0,29.87,North,-999,-999.0,-999.0,65,-99.99,,,-99.99,,2013-02-26 00:21:00,
2013-02-25 17:42:00,17.0,10.0,29.86,North,-999,-999.0,-999.0,72,-99.99,,,-99.99,,2013-02-26 00:42:00,
2013-02-25 17:52:00,17.0,10.0,29.86,North,-999,-999.0,-999.0,72,-99.99,,,-99.99,,2013-02-26 00:52:00,
2013-02-25 18:02:00,17.0,10.0,29.86,North,-999,-999.0,-999.0,72,-99.99,,,-99.99,,2013-02-26 01:02:00,
2013-02-25 18:11:00,16.0,10.0,29.85,North,-999,-999.0,-999.0,77,-99.99,,,-99.99,,2013-02-26 01:11:00,
2013-02-25 18:21:00,16.0,10.0,29.85,North,-999,-999.0,-999.0,77,-99.99,,,-99.99,,2013-02-26 01:21:00,
2013-02-25 18:32:00,16.0,10.0,29.85,North,-999,-999.0,-999.0,77,-99.99,,,-99.99,,2013-02-26 01:32:00,
2013-02-25 18:42:00,15.0,9.0,29.85,North,-999,-999.0,-999.0,75,-99.99,,,-99.99,,2013-02-26 01:42:00,
2013-02-25 18:51:00,15.0,9.0,29.85,North,-999,-999.0,-999.0,75,-99.99,,,-99.99,,2013-02-26 01:51:00,
2013-02-25 19:01:00,15.0,9.0,29.85,North,-999,-999.0,-999.0,75,-99.99,,,-99.99,,2013-02-26 02:01:00,
2013-02-25 19:11:00,15.0,9.0,29.85,North,-999,-999.0,-999.0,75,-99.99,,,-99.99,,2013-02-26 02:11:00,
2013-02-25 19:21:00,13.0,7.0,29.85,North,-999,-999.0,-999.0,76,-99.99,,,-99.99,,2013-02-26 02:21:00,
2013-02-25 19:32:00,13.0,7.0,29.85,North,-999,-999.0,-999.0,76,-99.99,,,-99.99,,2013-02-26 02:32:00,
2013-02-25 19:42:00,13.0,6.0,29.85,North,-999,-999.0,-999.0,73,-99.99,,,-99.99,,2013-02-26 02:42:00,
2013-02-25 19:52:00,13.0,6.0,29.85,North,-999,-999.0,-999.0,73,-99.99,,,-99.99,,2013-02-26 02:52:00,
2013-02-25 20:01:00,13.0,6.0,29.85,North,-999,-999.0,-999.0,73,-99.99,,,-99.99,,2013-02-26 03:01:00,
2013-02-25 20:11:00,13.0,6.0,29.85,North,-999,-999.0,-999.0,73,-99.99,,,-99.99,,2013-02-26 03:11:00,
2013-02-25 20:21:00,15.0,8.0,29.84,North,-999,-999.0,-999.0,72,-99.99,,,-99.99,,2013-02-26 03:21:00,
2013-02-25 20:32:00,15.0,8.0,29.84,North,-999,-999.0,-999.0,72,-99.99,,,-99.99,,2013-02-26 03:32:00,
2013-02-25 20:42:00,15.0,7.0,29.84,North,-999,-999.0,-999.0,69,-99.99,,,-99.99,,2013-02-26 03:42:00,
2013-02-25 20:52:00,15.0,7.0,29.84,North,-999,-999.0,-999.0,69,-99.99,,,-99.99,,2013-02-26 03:52:00,
2013-02-25 21:01:00,15.0,7.0,29.84,North,-999,-999.0,-999.0,69,-99.99,,,-99.99,,2013-02-26 04:01:00,
2013-02-25 21:11:00,16.0,8.0,29.84,North,-999,-999.0,-999.0,69,-99.99,,,-99.99,,2013-02-26 04:11:00,
2013-02-25 21:21:00,16.0,8.0,29.84,North,-999,-999.0,-999.0,69,-99.99,,,-99.99,,2013-02-26 04:21:00,
2013-02-25 21:32:00,16.0,8.0,29.84,North,-999,-999.0,-999.0,69,-99.99,,,-99.99,,2013-02-26 04:32:00,
2013-02-25 21:42:00,18.0,5.0,29.83,North,-999,-999.0,-999.0,56,-99.99,,,-99.99,,2013-02-26 04:42:00,
2013-02-25 21:51:00,18.0,5.0,29.83,North,-999,-999.0,-999.0,56,-99.99,,,-99.99,,2013-02-26 04:51:00,
2013-02-25 22:01:00,18.0,5.0,29.83,North,-999,-999.0,-999.0,56,-99.99,,,-99.99,,2013-02-26 05:01:00,
2013-02-25 22:12:00,17.0,4.0,29.83,North,-999,-999.0,-999.0,57,-99.99,,,-99.99,,2013-02-26 05:12:00,
2013-02-25 22:21:00,17.0,4.0,29.83,North,-999,-999.0,-999.0,57,-99.99,,,-99.99,,2013-02-26 05:21:00,
2013-02-25 22:32:00,17.0,4.0,29.83,North,-999,-999.0,-999.0,57,-99.99,,,-99.99,,2013-02-26 05:32:00,
2013-02-25 22:43:00,18.0,4.0,29.82,North,-999,-999.0,-999.0,53,-99.99,,,-99.99,,2013-02-26 05:43:00,
2013-02-25 22:52:00,18.0,4.0,29.82,North,-999,-999.0,-999.0,53,-99.99,,,-99.99,,2013-02-26 05:52:00,
2013-02-25 23:02:00,18.0,4.0,29.82,North,-999,-999.0,-999.0,53,-99.99,,,-99.99,,2013-02-26 06:02:00,
2013-02-25 23:11:00,18.0,4.0,29.82,North,-999,-999.0,-999.0,53,-99.99,,,-99.99,,2013-02-26 06:11:00,
2013-02-25 23:21:00,12.0,2.0,29.83,North,-999,-999.0,-999.0,64,-99.99,,,-99.99,,2013-02-26 06:21:00,
2013-02-25 23:32:00,12.0,2.0,29.83,North,-999,-999.0,-999.0,64,-99.99,,,-99.99,,2013-02-26 06:32:00,
2013-02-25 23:41:00,12.0,3.0,29.83,North,-999,-999.0,-999.0,66,-99.99,,,-99.99,,2013-02-26 06:41:00,
2013-02-25 23:51:00,12.0,3.0,29.83,North,-999,-999.0,-999.0,66,-99.99,,,-99.99,,2013-02-26 06:51:00,